Regional Weather Roundup
Issued by NWS Cleveland, OH

Home | Current Version | Previous Version | Graphics & Text | Print | Product List | Glossary On
Versions: 1 2 3 4 5 6 7 8 9 10 11 12 13 14 15 16 17 18 19 20 21 22 23 24 25 26 27 28 29 30 31 32 33 34 35 36 37 38 39 40 41 42 43 44 45 46 47 48 49 50
000
ASUS41 KCLE 031410
RWRCLE
OHIO REGIONAL WEATHER ROUNDUP
NATIONAL WEATHER SERVICE CLEVELAND, OH
1000 AM EDT THU SEP 03 2015

NOTE: "FAIR" INDICATES FEW OR NO CLOUDS BELOW 12,000 FEET WITH NO
SIGNIFICANT WEATHER AND/OR OBSTRUCTIONS TO VISIBILITY.

OHZ001>008-015>018-024>027-034-035-043-044-031500-
   NORTHWEST OHIO

CITY           SKY/WX    TMP DP  RH WIND       PRES   REMARKS
DEFIANCE       PTSUNNY   77  69  76 SW3       30.00F
FINDLAY        MOSUNNY   80  70  71 VRB7      30.00F
TOLEDO EXPRESS MOSUNNY   75  67  76 CALM      29.98F
TOLEDO EXEC    MOSUNNY   79  68  69 W7        29.99F
LIMA           SUNNY     78  69  73 W8        30.02F
$$

OHZ009>014-019>023-028>033-038-089-031500-
   NORTHEAST OHIO

CITY           SKY/WX    TMP DP  RH WIND       PRES   REMARKS
CLE-HOPKINS    MOSUNNY   77  69  76 SW6       30.01F
CLE-LAKEFRONT  MOSUNNY   78  70  76 W9        29.98S
CUY CO. ARPT   PTSUNNY   79  73  83 W14       30.00S
LORAIN-ELYRIA  MOSUNNY   77  69  76 VRB5      30.01S
ASHTABULA      PTSUNNY   77  72  84 W7        30.00S
AKRON-CANTON   PTSUNNY   79  68  69 W3        30.02S
WOOSTER        MOSUNNY   78  69  73 N8        30.03S
MANSFIELD      PTSUNNY   77  68  73 NW5       30.04S
YOUNGSTOWN     PTSUNNY   74  70  87 VRB3      30.01S FOG
$$

OHZ042-051>053-060>062-070>072-077>081-031500-
  SOUTHWEST OHIO

CITY           SKY/WX    TMP DP  RH WIND       PRES   REMARKS
CINC-COVINGTON MOSUNNY   80  69  69 W6        30.05F
CINC-LUNKEN    SUNNY     75  71  87 CALM      30.04F
HAMILTON       SUNNY     77  71  82 VRB3      30.05S
DAYTON         SUNNY     79  69  71 W5        30.05F
WRIGHT-PAT AFB SUNNY     76  71  85 SW3       30.04S
DAYTON GENERAL SUNNY     77  67  71 W3        30.05S
WILMINGTON     MOSUNNY   77  69  76 MISG      30.05S HAZE
$$

OHZ036-037-039>041-045>050-054>059-063>069-073>076-082>088-031500-
  CENTRAL AND SOUTHEAST OHIO

CITY           SKY/WX    TMP DP  RH WIND       PRES   REMARKS
COLUMBUS       PTSUNNY   74  68  81 CALM      30.02F
OSU AIRPORT    SUNNY     76  69  79 W3        30.03F
BOLTON FIELD   SUNNY     77  70  78 CALM      30.04S
RICKENBACK AFB MOSUNNY   74  69  83 CALM      30.03S
NEWARK         MOSUNNY   78  69  73 CALM      30.02F
MARION         SUNNY     76  69  79 NW6       30.03S HAZE
LANCASTER      MOSUNNY   76  68  76 CALM      30.03F
ZANESVILLE     MOSUNNY   77  66  68 CALM      30.02F
NEW PHILLY     MOSUNNY   77  69  76 CALM      30.01F
$$


USA.gov is the U.S. government's official web portal to all federal, state and local government web resources and services.